{"data":{"norad_id":68781,"epoch":"2026-05-25T04:00:03.998880Z","epoch_age_seconds":67534,"freshness":"FRESH","line1":"1 68781U 26086R   26145.16671295 -.01903800  00000+0 -23419-1 0  9999","line2":"2 68781  97.2847 182.0280 0001217  90.5120 264.5318 15.63360762  6079","mean_motion":15.63360762,"eccentricity":0.0001217,"inclination_deg":97.2847,"raan_deg":182.028,"arg_perigee_deg":90.512,"mean_anomaly_deg":264.5318,"bstar":-0.023419,"rev_number":607,"period_min":92.109258144474,"perigee_km":377.13508621794,"apogee_km":378.77951957127,"semimajor_km":6756.0943028946,"source":"CELESTRAK","updated_at":"2026-05-25T13:38:22.037285Z"}}